Location: *
(48.8667°N, 2.3331°E)
Time: 08:19:33
(UTC+00:00)

Cosmos 2061 Rocket - Pass Details

Date: 18 August 2020
Orbit: 966 x 1012 km, 82.9° (Epoch: 23 September)

Event Time Altitude Azimuth Distance (km) Brightness Sun altitude
Exits shadow 20:32:58 20° 132° (SE) 2,087 5.1 -14.1°
Maximum altitude 20:36:13 32° 86° (E) 1,612 4.8 -14.5°
Drops below altitude 10° 20:41:34 10° 26° (NNE) 2,721 6.5 -15.2°
Sets 20:44:20 0° 17° (NNE) 3,675 7.4 -15.5°
